Simultaneous Nadir Overpasses (SNOs) Predictions

Prediction of SNOs between GOES-14 and NPP Satellite Orbit:

Table of predicted SNOs for the next 14.0 days since TLE Epoch: 5/6/2023
Index Date Time (GOES-14) GOES-14 Lat,Lon NPP Lat,Lon Distance(km) Time Diff (sec)
1 05/06/2023 20:31:58 -0.16,-108.35 0.37,-105.88 281.09 80
2 05/08/2023 08:53:44 0.14,-108.38 0.75,-111.15 315.56 80
3 05/09/2023 08:32:18 0.15,-108.38 -0.24,-106.61 201.56 80
4 05/10/2023 20:54:12 -0.14,-108.36 -0.94,-111.92 405.51 80
5 05/11/2023 20:38:06 -0.15,-108.37 0.06,-107.38 112.58 80
6 05/13/2023 08:59:52 0.13,-108.42 1.06,-112.65 482.45 80
7 05/14/2023 08:38:26 0.15,-108.42 0.06,-108.12 35.04 80
8 05/16/2023 20:41:33 -0.14,-108.40 -0.22,-108.88 54.74 80
9 05/17/2023 20:25:27 -0.14,-108.41 0.79,-104.34 463.72 80
10 05/19/2023 08:47:12 0.12,-108.47 0.38,-109.61 130.59 80
